< < Back
Terminal Aerodrome Forecast


Current Version              Previous Versions:   1  2  3  4  5  6  7  8  9  

Terminal Aerodrome Forecast

292
FTUS42 KILM 070540
TAFILM
TAF
KILM 070540Z 0706/0806 01013G20KT 6SM -RA OVC035
     FM070800 01014G22KT 5SM -RA BR BKN020 OVC050
     FM071300 01020G30KT 2SM RA BR SCT004 OVC008
      TEMPO 0714/0718 3/4SM +RA BR OVC004
     FM071900 35028G40KT 3SM -RA BR OVC007
     FM080100 34020G30KT P6SM -RA BKN025 OVC045=



Latest METAR

608
SAUS70 KWBC 080200 RRF
MTRILM
METAR KILM 080153Z AUTO 32018KT 10SM -RA OVC075 03/00 A2974 RMK AO2 PK
WND 33027/0123 SLP069 P0001 T00330000 $


USA.gov is the U.S. government's official web portal to all federal, state and local government web resources and services.